• In Uzbekistan
  • List of Countries
  • For 7 days
  • Water Temperature
  • Satellite Maps
  • Weather Map
  • Weather Widgets
  • user-avatar
    Login

    Hourly Weather Lubango

    Today, 26 February, Sunday

    Time Temperature Precipitation Wind Pressure Humidity
    00:00 +14°C° 0 mm 1 mps 607 mmHg 85%
    01:00 +13°C° 0 mm 1 mps 607 mmHg 87%
    02:00 +12°C° 0 mm 0 mps 607 mmHg 88%
    03:00 +12°C° 0 mm 0 mps 606 mmHg 88%
    04:00 +12°C° 0 mm 0 mps 606 mmHg 89%
    05:00 +13°C° 0 mm 0 mps 607 mmHg 85%
    06:00 +14°C° 0 mm 0 mps 607 mmHg 81%
    07:00 +15°C° 0 mm 0 mps 608 mmHg 78%
    08:00 +18°C° 0 mm 0 mps 609 mmHg 67%
    09:00 +22°C° 0 mm 1 mps 610 mmHg 57%
    10:00 +25°C° 0 mm 1 mps 611 mmHg 46%
    11:00 +26°C° 0.2 mm 1 mps 611 mmHg 45%
    12:00 +26°C° 0.2 mm 1 mps 611 mmHg 44%
    13:00 +27°C° 0.2 mm 1 mps 611 mmHg 42%
    14:00 +26°C° 0.5 mm 2 mps 610 mmHg 46%
    15:00 +25°C° 0.5 mm 2 mps 609 mmHg 50%
    16:00 +24°C° 0.5 mm 2 mps 608 mmHg 54%
    17:00 +21°C° 0.1 mm 2 mps 608 mmHg 62%
    18:00 +19°C° 0.1 mm 2 mps 607 mmHg 70%
    19:00 +17°C° 0.1 mm 2 mps 607 mmHg 78%
    20:00 +18°C° 0 mm 1 mps 607 mmHg 81%
    21:00 +16°C° 0 mm 1 mps 607 mmHg 85%
    22:00 +15°C° 0 mm 1 mps 607 mmHg 88%
    23:00 +15°C° 0 mm 1 mps 607 mmHg 89%

    Tomorrow, 27 February, Monday

    Time Temperature Precipitation Wind Pressure Humidity
    00:00 +15°C° 0 mm 1 mps 606 mmHg 90%
    01:00 +14°C° 0 mm 0 mps 606 mmHg 91%
    02:00 +13°C° 0 mm 0 mps 606 mmHg 91%
    03:00 +14°C° 0 mm 1 mps 606 mmHg 91%
    04:00 +14°C° 0 mm 1 mps 605 mmHg 92%
    05:00 +15°C° 0 mm 1 mps 606 mmHg 89%
    06:00 +15°C° 0 mm 1 mps 606 mmHg 87%
    07:00 +16°C° 0 mm 1 mps 607 mmHg 85%
    08:00 +19°C° 0 mm 1 mps 608 mmHg 76%
    09:00 +21°C° 0 mm 1 mps 609 mmHg 66%
    10:00 +22°C° 0 mm 1 mps 610 mmHg 57%
    11:00 +23°C° 0.3 mm 2 mps 609 mmHg 57%
    12:00 +23°C° 0.3 mm 2 mps 609 mmHg 58%
    13:00 +23°C° 0.3 mm 2 mps 609 mmHg 58%
    14:00 +21°C° 0.5 mm 2 mps 608 mmHg 60%
    15:00 +21°C° 0.5 mm 2 mps 607 mmHg 62%
    16:00 +20°C° 0.5 mm 3 mps 607 mmHg 65%
    17:00 +19°C° 0.2 mm 2 mps 607 mmHg 71%
    18:00 +17°C° 0.2 mm 2 mps 607 mmHg 77%
    19:00 +16°C° 0.2 mm 2 mps 606 mmHg 84%
    20:00 +16°C° 0.1 mm 1 mps 607 mmHg 86%
    21:00 +15°C° 0.1 mm 1 mps 607 mmHg 88%
    22:00 +15°C° 0.1 mm 1 mps 607 mmHg 91%
    23:00 +14°C° 0.1 mm 1 mps 607 mmHg 92%

    Day after tomorrow, 28 February, Tuesday

    Time Temperature Precipitation Wind Pressure Humidity
    00:00 +14°C° 0.1 mm 1 mps 607 mmHg 93%
    01:00 +13°C° 0.1 mm 0 mps 607 mmHg 94%
    02:00 +13°C° 0.1 mm 0 mps 606 mmHg 95%
    03:00 +13°C° 0.1 mm 0 mps 606 mmHg 95%
    04:00 +12°C° 0.1 mm 0 mps 606 mmHg 96%
    05:00 +13°C° 0 mm 0 mps 606 mmHg 94%
    06:00 +13°C° 0 mm 0 mps 607 mmHg 91%
    07:00 +14°C° 0 mm 0 mps 607 mmHg 89%
    08:00 +16°C° 0 mm 0 mps 608 mmHg 76%
    09:00 +21°C° 0 mm 1 mps 610 mmHg 62%
    10:00 +23°C° 0 mm 1 mps 611 mmHg 49%
    11:00 +24°C° 0 mm 1 mps 611 mmHg 44%
    12:00 +25°C° 0 mm 2 mps 611 mmHg 39%
    13:00 +26°C° 0 mm 2 mps 610 mmHg 34%
    14:00 +26°C° 0 mm 3 mps 610 mmHg 35%
    15:00 +25°C° 0 mm 3 mps 609 mmHg 37%
    16:00 +25°C° 0 mm 3 mps 609 mmHg 39%
    17:00 +22°C° 0 mm 3 mps 608 mmHg 48%
    18:00 +19°C° 0 mm 2 mps 608 mmHg 58%
    19:00 +17°C° 0 mm 2 mps 607 mmHg 68%
    20:00 +16°C° 0 mm 2 mps 607 mmHg 74%
    21:00 +15°C° 0 mm 1 mps 607 mmHg 81%
    22:00 +14°C° 0 mm 1 mps 608 mmHg 87%
    23:00 +13°C° 0 mm 1 mps 607 mmHg 90%

    1 March, Wednesday

    Time Temperature Precipitation Wind Pressure Humidity
    00:00 +13°C° 0 mm 1 mps 607 mmHg 93%
    01:00 +11°C° 0 mm 0 mps 606 mmHg 95%
    02:00 +11°C° 0 mm 0 mps 606 mmHg 95%
    03:00 +11°C° 0 mm 0 mps 606 mmHg 96%
    04:00 +10°C° 0 mm 0 mps 605 mmHg 96%
    05:00 +11°C° 0 mm 0 mps 606 mmHg 93%
    06:00 +12°C° 0 mm 0 mps 607 mmHg 89%
    07:00 +13°C° 0 mm 0 mps 607 mmHg 86%
    08:00 +16°C° 0 mm 0 mps 609 mmHg 72%
    09:00 +19°C° 0 mm 0 mps 610 mmHg 58%
    10:00 +22°C° 0 mm 0 mps 611 mmHg 44%
    11:00 +25°C° 0 mm 1 mps 611 mmHg 41%
    12:00 +25°C° 0 mm 1 mps 611 mmHg 38%
    13:00 +26°C° 0 mm 2 mps 610 mmHg 36%
    14:00 +26°C° 0 mm 2 mps 610 mmHg 38%
    15:00 +25°C° 0 mm 3 mps 609 mmHg 41%
    16:00 +24°C° 0 mm 3 mps 608 mmHg 44%
    17:00 +21°C° 0 mm 3 mps 608 mmHg 52%
    18:00 +19°C° 0 mm 2 mps 608 mmHg 60%
    19:00 +17°C° 0 mm 2 mps 607 mmHg 68%
    20:00 +16°C° 0 mm 1 mps 607 mmHg 73%
    21:00 +15°C° 0 mm 1 mps 607 mmHg 79%
    22:00 +14°C° 0 mm 1 mps 607 mmHg 84%
    23:00 +14°C° 0 mm 1 mps 607 mmHg 86%

    2 March, Thursday

    Time Temperature Precipitation Wind Pressure Humidity
    00:00 +13°C° 0 mm 1 mps 607 mmHg 88%
    01:00 +12°C° 0 mm 0 mps 607 mmHg 90%
    02:00 +12°C° 0 mm 0 mps 607 mmHg 91%
    03:00 +12°C° 0 mm 0 mps 606 mmHg 91%
    04:00 +12°C° 0 mm 0 mps 606 mmHg 92%
    05:00 +12°C° 0 mm 0 mps 607 mmHg 90%
    06:00 +13°C° 0 mm 0 mps 607 mmHg 88%
    07:00 +13°C° 0 mm 0 mps 608 mmHg 85%
    08:00 +18°C° 0 mm 1 mps 609 mmHg 73%
    09:00 +21°C° 0 mm 1 mps 610 mmHg 62%
    10:00 +23°C° 0 mm 1 mps 611 mmHg 50%
    11:00 +24°C° 0.1 mm 2 mps 611 mmHg 48%
    12:00 +24°C° 0.1 mm 2 mps 610 mmHg 46%
    13:00 +25°C° 0.1 mm 2 mps 610 mmHg 44%
    14:00 +24°C° 0.1 mm 3 mps 609 mmHg 46%
    15:00 +24°C° 0.1 mm 3 mps 609 mmHg 48%
    16:00 +22°C° 0.1 mm 3 mps 608 mmHg 50%
    17:00 +20°C° 0 mm 3 mps 608 mmHg 57%
    18:00 +18°C° 0 mm 2 mps 608 mmHg 64%
    19:00 +17°C° 0 mm 2 mps 607 mmHg 70%
    20:00 +16°C° 0 mm 1 mps 607 mmHg 74%
    21:00 +15°C° 0 mm 1 mps 607 mmHg 78%
    22:00 +14°C° 0 mm 1 mps 607 mmHg 82%
    23:00 +14°C° 0 mm 1 mps 607 mmHg 84%

    3 March, Friday

    Time Temperature Precipitation Wind Pressure Humidity
    00:00 +12°C° 0 mm 0 mps 607 mmHg 86%
    01:00 +12°C° 0 mm 0 mps 606 mmHg 89%
    02:00 +11°C° 0 mm 0 mps 606 mmHg 90%
    03:00 +11°C° 0 mm 0 mps 606 mmHg 91%
    04:00 +11°C° 0 mm 0 mps 605 mmHg 92%
    05:00 +12°C° 0 mm 0 mps 606 mmHg 89%
    06:00 +13°C° 0 mm 1 mps 607 mmHg 86%
    07:00 +14°C° 0 mm 1 mps 607 mmHg 83%
    08:00 +18°C° 0 mm 1 mps 608 mmHg 67%
    09:00 +21°C° 0 mm 1 mps 610 mmHg 52%
    10:00 +24°C° 0 mm 1 mps 611 mmHg 36%
    11:00 +25°C° 0 mm 1 mps 611 mmHg 32%
    12:00 +26°C° 0 mm 2 mps 610 mmHg 29%
    13:00 +27°C° 0 mm 2 mps 610 mmHg 25%
    14:00 +27°C° 0 mm 3 mps 610 mmHg 26%
    15:00 +26°C° 0 mm 3 mps 609 mmHg 27%
    16:00 +26°C° 0 mm 3 mps 609 mmHg 27%
    17:00 +22°C° 0 mm 3 mps 608 mmHg 37%
    18:00 +19°C° 0 mm 2 mps 607 mmHg 47%
    19:00 +16°C° 0 mm 2 mps 606 mmHg 57%
    20:00 +15°C° 0 mm 2 mps 606 mmHg 64%
    21:00 +14°C° 0 mm 1 mps 606 mmHg 71%
    22:00 +12°C° 0 mm 1 mps 606 mmHg 79%
    23:00 +12°C° 0 mm 1 mps 605 mmHg 81%
    Show more